Voltar ao catálogo

STARLINK-36208

AtivoComunicaçõesVLEO
NORAD 67108·PAYLOAD·🇺🇸 United States

Lançado Dec 15, 2025 de Cape Canaveral Space Force Station

Loading…

Próximas Passagens (próximas 24 horas)

TLE

AtualizadoSource: CelesTrak SupGP

Época: Sep 15, 2026, 02:50 UTC

1 67108C 25299G   26258.11854167 -.00028852  00000+0 -10452-2 0  2583
2 67108  42.9998 178.8476 0001424 276.1656 347.2498 15.27588698    17

Acompanhe STARLINK-36208 em tempo real com AllMySat

Download on the App Store